Voltar ao catálogo

FENGYUN 1C DEB

AtivoSSO
NORAD 30074·DEBRIS·🇨🇳 China

Lançado May 10, 1999 de Taiyuan Satellite Launch Center

Loading…

Próximas Passagens (próximas 24 horas)

TLE

AtualizadoSource: Space-Track

Época: Sep 14, 2026, 16:22 UTC

1 30074U 99025QB  26257.68240402  .00001576  00000-0  81533-3 0  9999
2 30074  99.1126 334.2887 0095833  95.4291 265.7822 14.14100379  5318

Acompanhe FENGYUN 1C DEB em tempo real com AllMySat

Download on the App Store